Time,TemperatureF,DewpointF,PressureIn,WindDirection,WindDirectionDegrees,WindSpeedMPH,WindSpeedGustMPH,Humidity,HourlyPrecipIn,Conditions,Clouds,dailyrainin,SoftwareType,DateUTC
2013-04-18 00:01:00,42.4,36.7,30.29,NNE,22,2.0,2.3,80,0.00,,BKN,0.00,WeatherDisplay:10.37,2013-04-18 04:01:00,
2013-04-18 00:02:00,42.4,36.7,30.29,NNE,22,1.9,2.3,80,0.00,,BKN,0.00,WeatherDisplay:10.37,2013-04-18 04:02:00,
2013-04-18 00:07:00,42.4,37.3,30.29,NNE,22,1.8,2.3,82,0.00,,BKN,0.00,WeatherDisplay:10.37,2013-04-18 04:07:00,
2013-04-18 00:12:00,42.3,37.2,30.28,NNE,22,0.4,1.1,82,0.00,,BKN,0.00,WeatherDisplay:10.37,2013-04-18 04:12:00,
2013-04-18 00:17:00,42.1,36.7,30.28,NNE,22,1.7,1.7,81,0.00,,BKN,0.00,WeatherDisplay:10.37,2013-04-18 04:17:00,
2013-04-18 00:22:00,41.9,36.5,30.28,NNE,22,0.0,0.0,81,0.00,,BKN,0.00,WeatherDisplay:10.37,2013-04-18 04:22:00,
2013-04-18 00:27:00,41.7,36.6,30.29,NNE,22,0.0,0.0,82,0.00,,BKN,0.00,WeatherDisplay:10.37,2013-04-18 04:27:00,
2013-04-18 00:32:00,41.4,36.3,30.29,NNE,22,0.0,0.0,82,0.00,,BKN,0.00,WeatherDisplay:10.37,2013-04-18 04:32:00,
2013-04-18 00:37:00,41.0,35.9,30.30,NNE,22,0.0,0.0,82,0.00,,BKN,0.00,WeatherDisplay:10.37,2013-04-18 04:37:00,
2013-04-18 00:42:00,41.0,36.5,30.30,NNE,22,0.0,0.0,84,0.00,,BKN,0.00,WeatherDisplay:10.37,2013-04-18 04:42:00,
2013-04-18 00:47:00,41.0,36.8,30.30,NNE,22,1.3,2.3,85,0.00,,BKN,0.00,WeatherDisplay:10.37,2013-04-18 04:47:00,
2013-04-18 00:52:00,41.5,36.7,30.29,NNE,22,1.5,1.7,83,0.00,,BKN,0.00,WeatherDisplay:10.37,2013-04-18 04:52:00,
2013-04-18 00:57:00,41.7,36.3,30.29,NNE,22,2.0,2.3,81,0.00,,BKN,0.00,WeatherDisplay:10.37,2013-04-18 04:57:00,
2013-04-18 01:02:00,41.7,36.6,30.27,NNE,22,1.8,2.3,82,0.00,,BKN,0.00,WeatherDisplay:10.37,2013-04-18 05:02:00,
2013-04-18 01:07:00,41.7,36.6,30.27,NNE,22,1.5,1.7,82,0.00,,BKN,0.00,WeatherDisplay:10.37,2013-04-18 05:07:00,
2013-04-18 01:12:00,41.4,36.6,30.27,NNE,22,0.0,0.0,83,0.00,,BKN,0.00,WeatherDisplay:10.37,2013-04-18 05:12:00,
2013-04-18 01:17:00,41.2,36.4,30.27,NNE,22,0.9,2.3,83,0.00,,BKN,0.00,WeatherDisplay:10.37,2013-04-18 05:17:00,
2013-04-18 01:22:00,41.5,36.7,30.27,NNE,22,1.7,1.7,83,0.00,,BKN,0.00,WeatherDisplay:10.37,2013-04-18 05:22:00,
2013-04-18 01:27:00,41.4,36.6,30.27,NNE,22,1.3,1.3,83,0.00,,BKN,0.00,WeatherDisplay:10.37,2013-04-18 05:27:00,
2013-04-18 01:32:00,41.0,36.5,30.27,NNE,22,0.0,0.0,84,0.00,,BKN,0.00,WeatherDisplay:10.37,2013-04-18 05:32:00,
2013-04-18 01:37:00,40.6,36.1,30.27,NNE,22,1.8,2.3,84,0.00,,BKN,0.00,WeatherDisplay:10.37,2013-04-18 05:37:00,
2013-04-18 01:42:00,40.5,36.3,30.27,NNE,22,0.0,0.0,85,0.00,,BKN,0.00,WeatherDisplay:10.37,2013-04-18 05:42:00,
2013-04-18 01:47:00,40.3,36.7,30.27,NNE,22,1.0,1.1,87,0.00,,BKN,0.00,WeatherDisplay:10.37,2013-04-18 05:47:00,
2013-04-18 01:52:00,40.1,36.5,30.27,NNE,22,0.0,0.0,87,0.00,,BKN,0.00,WeatherDisplay:10.37,2013-04-18 05:52:00,
2013-04-18 01:57:00,40.1,36.5,30.27,NNE,22,0.0,0.0,87,0.00,,BKN,0.00,WeatherDisplay:10.37,2013-04-18 05:57:00,
2013-04-18 02:02:00,39.9,36.9,30.27,NNE,22,0.0,0.0,89,0.00,,BKN,0.00,WeatherDisplay:10.37,2013-04-18 06:02:00,
2013-04-18 02:07:00,39.7,36.4,30.27,NNE,22,0.0,0.0,88,0.00,,BKN,0.00,WeatherDisplay:10.37,2013-04-18 06:07:00,
2013-04-18 02:12:00,39.7,36.4,30.26,NNE,22,1.5,1.5,88,0.00,,BKN,0.00,WeatherDisplay:10.37,2013-04-18 06:12:00,
2013-04-18 02:17:00,40.1,36.8,30.26,NNE,22,2.1,2.3,88,0.00,,BKN,0.00,WeatherDisplay:10.37,2013-04-18 06:17:00,
2013-04-18 02:22:00,40.1,36.5,30.26,NNE,22,1.3,1.7,87,0.00,,BKN,0.00,WeatherDisplay:10.37,2013-04-18 06:22:00,
2013-04-18 02:27:00,40.1,36.2,30.26,NNE,22,1.7,1.7,86,0.00,,BKN,0.00,WeatherDisplay:10.37,2013-04-18 06:27:00,
2013-04-18 02:32:00,40.1,36.5,30.26,NNE,22,1.9,2.3,87,0.00,,BKN,0.00,WeatherDisplay:10.37,2013-04-18 06:32:00,
2013-04-18 02:37:00,40.3,36.7,30.25,NNE,22,0.8,1.1,87,0.00,,BKN,0.00,WeatherDisplay:10.37,2013-04-18 06:37:00,
2013-04-18 02:42:00,40.3,36.7,30.25,NNE,22,1.7,1.7,87,0.00,,BKN,0.00,WeatherDisplay:10.37,2013-04-18 06:42:00,
2013-04-18 02:47:00,40.3,36.7,30.24,NNE,22,1.7,1.7,87,0.00,,BKN,0.00,WeatherDisplay:10.37,2013-04-18 06:47:00,
2013-04-18 02:52:00,40.1,36.5,30.24,NNE,22,0.0,0.0,87,0.00,,BKN,0.00,WeatherDisplay:10.37,2013-04-18 06:52:00,
2013-04-18 02:57:00,40.1,36.8,30.24,NNE,22,0.4,2.2,88,0.00,,BKN,0.00,WeatherDisplay:10.37,2013-04-18 06:57:00,
2013-04-18 03:02:00,40.8,36.6,30.24,NNE,22,2.8,3.5,85,0.00,,BKN,0.00,WeatherDisplay:10.37,2013-04-18 07:02:00,
2013-04-18 03:07:00,41.5,36.7,30.24,NNE,22,2.2,2.3,83,0.00,,BKN,0.00,WeatherDisplay:10.37,2013-04-18 07:07:00,
2013-04-18 03:12:00,41.9,36.8,30.23,NNE,22,3.1,3.7,82,0.00,,BKN,0.00,WeatherDisplay:10.37,2013-04-18 07:12:00,
2013-04-18 03:17:00,41.9,37.1,30.23,NNE,22,1.3,2.3,83,0.00,,BKN,0.00,WeatherDisplay:10.37,2013-04-18 07:17:00,
2013-04-18 03:22:00,41.7,36.6,30.23,NNE,22,0.1,1.1,82,0.00,,BKN,0.00,WeatherDisplay:10.37,2013-04-18 07:22:00,
2013-04-18 03:27:00,41.7,36.3,30.23,NNE,22,2.6,3.5,81,0.00,,BKN,0.00,WeatherDisplay:10.37,2013-04-18 07:27:00,
2013-04-18 03:32:00,41.9,36.8,30.23,NNE,22,2.3,2.7,82,0.00,,BKN,0.00,WeatherDisplay:10.37,2013-04-18 07:32:00,
2013-04-18 03:37:00,41.9,36.8,30.22,NNE,22,2.2,2.7,82,0.00,,BKN,0.00,WeatherDisplay:10.37,2013-04-18 07:37:00,
2013-04-18 03:42:00,42.3,36.9,30.22,NNE,22,3.6,4.6,81,0.00,,BKN,0.00,WeatherDisplay:10.37,2013-04-18 07:42:00,
2013-04-18 03:47:00,42.4,37.0,30.21,ESE,112,3.4,4.6,81,0.00,,BKN,0.00,WeatherDisplay:10.37,2013-04-18 07:47:00,
2013-04-18 03:52:00,42.4,37.0,30.21,ESE,112,4.4,4.7,81,0.00,,BKN,0.00,WeatherDisplay:10.37,2013-04-18 07:52:00,
2013-04-18 03:57:00,43.0,36.9,30.21,ESE,112,3.8,4.6,79,0.00,,BKN,0.00,WeatherDisplay:10.37,2013-04-18 07:57:00,
2013-04-18 04:02:00,43.3,36.9,30.20,ESE,112,4.3,5.8,78,0.00,,BKN,0.00,WeatherDisplay:10.37,2013-04-18 08:02:00,
2013-04-18 04:07:00,43.5,36.8,30.20,ESE,112,3.7,5.8,77,0.00,,BKN,0.00,WeatherDisplay:10.37,2013-04-18 08:07:00,
2013-04-18 04:12:00,43.5,36.4,30.20,ESE,112,3.1,3.5,76,0.00,,BKN,0.00,WeatherDisplay:10.37,2013-04-18 08:12:00,
2013-04-18 04:17:00,43.5,36.4,30.20,ESE,112,3.7,4.6,76,0.00,,BKN,0.00,WeatherDisplay:10.37,2013-04-18 08:17:00,
2013-04-18 04:22:00,43.5,36.4,30.20,ESE,112,3.1,4.6,76,0.00,,BKN,0.00,WeatherDisplay:10.37,2013-04-18 08:22:00,
2013-04-18 04:27:00,43.7,36.3,30.19,ESE,112,3.2,3.5,75,0.00,,BKN,0.00,WeatherDisplay:10.37,2013-04-18 08:27:00,
2013-04-18 04:32:00,43.9,36.5,30.19,ESE,112,3.2,3.5,75,0.00,,BKN,0.00,WeatherDisplay:10.37,2013-04-18 08:32:00,
2013-04-18 04:37:00,44.1,36.7,30.19,ESE,112,3.3,3.5,75,0.00,,BKN,0.00,WeatherDisplay:10.37,2013-04-18 08:37:00,
2013-04-18 04:42:00,44.2,36.8,30.19,ESE,112,2.6,3.5,75,0.00,,BKN,0.00,WeatherDisplay:10.37,2013-04-18 08:42:00,
2013-04-18 04:47:00,44.8,36.7,30.19,East,90,3.4,4.6,73,0.00,,BKN,0.00,WeatherDisplay:10.37,2013-04-18 08:47:00,
2013-04-18 04:52:00,45.0,36.9,30.20,East,90,3.3,3.5,73,0.00,,BKN,0.00,WeatherDisplay:10.37,2013-04-18 08:52:00,
2013-04-18 04:57:00,45.1,37.0,30.20,East,90,3.2,4.2,73,0.00,,BKN,0.00,WeatherDisplay:10.37,2013-04-18 08:57:00,
2013-04-18 05:02:00,45.3,36.8,30.20,ESE,112,4.0,4.7,72,0.00,,BKN,0.00,WeatherDisplay:10.37,2013-04-18 09:02:00,
2013-04-18 05:07:00,45.7,36.8,30.20,ESE,112,3.3,4.6,71,0.00,,BKN,0.00,WeatherDisplay:10.37,2013-04-18 09:07:00,
2013-04-18 05:12:00,45.9,36.7,30.20,ESE,112,4.0,4.2,70,0.00,,BKN,0.00,WeatherDisplay:10.37,2013-04-18 09:12:00,
2013-04-18 05:18:00,45.9,37.0,30.20,ESE,112,3.3,3.5,71,0.00,,BKN,0.00,WeatherDisplay:10.37,2013-04-18 09:18:00,
2013-04-18 05:23:00,45.9,36.7,30.20,East,90,3.4,4.6,70,0.00,,BKN,0.00,WeatherDisplay:10.37,2013-04-18 09:23:00,
2013-04-18 05:28:00,46.2,37.0,30.20,ESE,112,3.8,4.6,70,0.00,,BKN,0.00,WeatherDisplay:10.37,2013-04-18 09:28:00,
2013-04-18 05:33:00,46.2,36.6,30.20,ESE,112,4.4,4.7,69,0.00,,BKN,0.00,WeatherDisplay:10.37,2013-04-18 09:33:00,
2013-04-18 05:38:00,46.4,36.8,30.19,East,90,3.8,4.6,69,0.00,,BKN,0.00,WeatherDisplay:10.37,2013-04-18 09:38:00,
2013-04-18 05:43:00,46.4,36.8,30.19,East,90,3.7,4.6,69,0.00,,BKN,0.00,WeatherDisplay:10.37,2013-04-18 09:43:00,
2013-04-18 05:48:00,46.4,36.4,30.18,East,90,3.8,4.6,68,0.00,,BKN,0.00,WeatherDisplay:10.37,2013-04-18 09:48:00,
2013-04-18 05:53:00,46.6,36.6,30.18,East,90,4.3,4.7,68,0.00,,BKN,0.00,WeatherDisplay:10.37,2013-04-18 09:53:00,
2013-04-18 05:58:00,46.6,36.6,30.18,ESE,112,3.5,4.6,68,0.00,,BKN,0.00,WeatherDisplay:10.37,2013-04-18 09:58:00,
2013-04-18 06:03:00,46.8,36.8,30.19,ESE,112,4.4,6.3,68,0.00,,BKN,0.00,WeatherDisplay:10.37,2013-04-18 10:03:00,
2013-04-18 06:08:00,46.9,36.5,30.19,ESE,112,5.0,5.8,67,0.00,,BKN,0.00,WeatherDisplay:10.37,2013-04-18 10:08:00,
2013-04-18 06:13:00,47.1,36.3,30.19,ESE,112,6.0,6.3,66,0.00,,BKN,0.00,WeatherDisplay:10.37,2013-04-18 10:13:00,
2013-04-18 06:18:00,47.1,36.3,30.19,ESE,112,5.4,6.9,66,0.00,,BKN,0.00,WeatherDisplay:10.37,2013-04-18 10:18:00,
2013-04-18 06:23:00,47.1,36.3,30.18,ESE,112,4.9,5.8,66,0.00,,BKN,0.00,WeatherDisplay:10.37,2013-04-18 10:23:00,
2013-04-18 06:28:00,47.3,36.5,30.18,ESE,112,4.9,6.9,66,0.00,,BKN,0.00,WeatherDisplay:10.37,2013-04-18 10:28:00,
2013-04-18 06:33:00,47.3,36.5,30.18,East,90,4.3,5.8,66,0.00,,BKN,0.00,WeatherDisplay:10.37,2013-04-18 10:33:00,
2013-04-18 06:38:00,47.3,36.1,30.18,ESE,112,4.1,4.6,65,0.00,,BKN,0.00,WeatherDisplay:10.37,2013-04-18 10:38:00,
2013-04-18 06:43:00,47.3,36.5,30.18,ENE,68,3.7,4.2,66,0.00,,BKN,0.00,WeatherDisplay:10.37,2013-04-18 10:43:00,
2013-04-18 06:48:00,47.3,36.5,30.19,ESE,112,3.1,3.2,66,0.00,,BKN,0.00,WeatherDisplay:10.37,2013-04-18 10:48:00,
2013-04-18 06:53:00,47.3,36.9,30.19,ESE,112,3.6,3.7,67,0.00,,BKN,0.00,WeatherDisplay:10.37,2013-04-18 10:53:00,
2013-04-18 06:58:00,47.5,36.7,30.19,ESE,112,3.8,4.6,66,0.00,,BKN,0.00,WeatherDisplay:10.37,2013-04-18 10:58:00,
2013-04-18 07:03:00,47.5,37.8,30.19,ESE,112,1.8,2.7,69,0.00,,BKN,0.00,WeatherDisplay:10.37,2013-04-18 11:03:00,
2013-04-18 07:08:00,47.3,38.0,30.19,ESE,112,4.3,4.7,70,0.00,,BKN,0.00,WeatherDisplay:10.37,2013-04-18 11:08:00,
2013-04-18 07:13:00,46.8,38.2,30.18,ESE,112,4.3,4.7,72,0.00,,BKN,0.00,WeatherDisplay:10.37,2013-04-18 11:13:00,
2013-04-18 07:18:00,46.6,38.8,30.18,ESE,112,3.4,3.5,74,0.00,,BKN,0.00,WeatherDisplay:10.37,2013-04-18 11:18:00,
2013-04-18 07:23:00,46.4,38.9,30.18,ESE,112,3.1,3.7,75,0.00,,BKN,0.00,WeatherDisplay:10.37,2013-04-18 11:23:00,
2013-04-18 07:28:00,46.2,38.7,30.17,ESE,112,3.6,5.8,75,0.00,,BKN,0.00,WeatherDisplay:10.37,2013-04-18 11:28:00,
2013-04-18 07:33:00,46.2,38.4,30.17,ESE,112,2.9,3.5,74,0.00,,BKN,0.00,WeatherDisplay:10.37,2013-04-18 11:33:00,
2013-04-18 07:38:00,46.2,38.0,30.17,ESE,112,3.7,4.7,73,0.00,,BKN,0.00,WeatherDisplay:10.37,2013-04-18 11:38:00,
2013-04-18 07:43:00,46.2,37.7,30.17,ESE,112,3.7,4.7,72,0.00,,BKN,0.00,WeatherDisplay:10.37,2013-04-18 11:43:00,
2013-04-18 07:48:00,46.2,37.3,30.17,ESE,112,3.6,4.6,71,0.00,,BKN,0.00,WeatherDisplay:10.37,2013-04-18 11:48:00,
2013-04-18 07:53:00,46.4,37.1,30.17,ESE,112,4.5,5.8,70,0.00,,BKN,0.00,WeatherDisplay:10.37,2013-04-18 11:53:00,
2013-04-18 07:58:00,46.8,37.2,30.17,ESE,112,5.3,5.8,69,0.00,,BKN,0.00,WeatherDisplay:10.37,2013-04-18 11:58:00,
2013-04-18 08:03:00,46.9,37.3,30.16,ESE,112,3.4,4.6,69,0.00,,BKN,0.00,WeatherDisplay:10.37,2013-04-18 12:03:00,
2013-04-18 08:08:00,47.7,37.7,30.16,ESE,112,3.9,4.7,68,0.00,,BKN,0.00,WeatherDisplay:10.37,2013-04-18 12:08:00,
2013-04-18 08:13:00,48.0,37.6,30.16,ESE,112,3.7,4.6,67,0.00,,BKN,0.00,WeatherDisplay:10.37,2013-04-18 12:13:00,
2013-04-18 08:18:00,48.0,37.6,30.16,ESE,112,3.7,4.6,67,0.00,,BKN,0.00,WeatherDisplay:10.37,2013-04-18 12:18:00,
2013-04-18 08:23:00,48.4,37.6,30.16,East,90,3.0,3.5,66,0.00,,BKN,0.00,WeatherDisplay:10.37,2013-04-18 12:23:00,
2013-04-18 08:28:00,48.7,37.5,30.16,East,90,4.3,4.7,65,0.00,,BKN,0.00,WeatherDisplay:10.37,2013-04-18 12:28:00,
2013-04-18 08:33:00,49.1,37.8,30.16,ESE,112,4.7,5.8,65,0.00,,BKN,0.00,WeatherDisplay:10.37,2013-04-18 12:33:00,
2013-04-18 08:38:00,49.6,37.9,30.16,East,90,3.8,4.6,64,0.00,,BKN,0.00,WeatherDisplay:10.37,2013-04-18 12:38:00,
2013-04-18 08:43:00,50.2,38.1,30.16,East,90,4.2,4.6,63,0.00,,BKN,0.00,WeatherDisplay:10.37,2013-04-18 12:43:00,
2013-04-18 08:48:00,50.5,38.0,30.15,East,90,3.6,3.6,62,0.00,,BKN,0.00,WeatherDisplay:10.37,2013-04-18 12:48:00,
2013-04-18 08:53:00,50.5,38.8,30.15,East,90,2.8,3.5,64,0.00,,BKN,0.00,WeatherDisplay:10.37,2013-04-18 12:53:00,
2013-04-18 08:58:00,50.9,38.7,30.15,East,90,3.0,3.5,63,0.00,,BKN,0.00,WeatherDisplay:10.37,2013-04-18 12:58:00,
2013-04-18 09:03:00,51.1,39.3,30.15,East,90,2.7,3.5,64,0.00,,BKN,0.00,WeatherDisplay:10.37,2013-04-18 13:03:00,
2013-04-18 09:08:00,51.4,39.6,30.15,East,90,2.9,3.5,64,0.00,,BKN,0.00,WeatherDisplay:10.37,2013-04-18 13:08:00,
2013-04-18 09:13:00,51.4,39.6,30.14,East,90,3.2,3.5,64,0.00,,BKN,0.00,WeatherDisplay:10.37,2013-04-18 13:13:00,
2013-04-18 09:18:00,52.2,40.4,30.14,East,90,0.0,1.1,64,0.00,,BKN,0.00,WeatherDisplay:10.37,2013-04-18 13:18:00,
2013-04-18 09:23:00,52.7,41.3,30.14,East,90,0.0,0.0,65,0.00,,BKN,0.00,WeatherDisplay:10.37,2013-04-18 13:23:00,
2013-04-18 09:28:00,54.0,40.4,30.14,East,90,2.1,2.7,60,0.00,,BKN,0.00,WeatherDisplay:10.37,2013-04-18 13:28:00,
2013-04-18 09:33:00,55.9,40.0,30.14,SE,135,2.5,4.6,55,0.00,,BKN,0.00,WeatherDisplay:10.37,2013-04-18 13:33:00,
2013-04-18 09:38:00,58.5,39.9,30.14,ESE,112,2.8,3.7,50,0.00,,BKN,0.00,WeatherDisplay:10.37,2013-04-18 13:38:00,
2013-04-18 09:43:00,59.7,40.5,30.14,ESE,112,2.5,2.7,49,0.00,,BKN,0.00,WeatherDisplay:10.37,2013-04-18 13:43:00,
2013-04-18 09:48:00,60.6,40.2,30.13,ESE,112,2.0,3.7,47,0.00,,BKN,0.00,WeatherDisplay:10.37,2013-04-18 13:48:00,
2013-04-18 09:53:00,61.0,41.7,30.13,ESE,112,1.8,2.3,49,0.00,,BKN,0.00,WeatherDisplay:10.37,2013-04-18 13:53:00,
2013-04-18 09:58:00,62.4,41.3,30.13,SE,135,2.9,3.5,46,0.00,,BKN,0.00,WeatherDisplay:10.37,2013-04-18 13:58:00,
2013-04-18 10:03:00,63.9,42.1,30.13,SE,135,2.6,3.5,45,0.00,,BKN,0.00,WeatherDisplay:10.37,2013-04-18 14:03:00,
2013-04-18 10:08:00,64.0,40.4,30.13,SE,135,3.6,4.6,42,0.00,,BKN,0.00,WeatherDisplay:10.37,2013-04-18 14:08:00,
2013-04-18 10:13:00,64.4,42.0,30.12,SE,135,1.6,2.3,44,0.00,,BKN,0.00,WeatherDisplay:10.37,2013-04-18 14:13:00,
2013-04-18 10:18:00,64.9,42.5,30.12,SE,135,3.2,4.6,44,0.00,,BKN,0.00,WeatherDisplay:10.37,2013-04-18 14:18:00,
2013-04-18 10:23:00,64.6,42.8,30.12,SSE,158,3.3,4.6,45,0.00,,BKN,0.00,WeatherDisplay:10.37,2013-04-18 14:23:00,
2013-04-18 10:28:00,65.5,42.4,30.12,SE,135,3.1,4.2,43,0.00,,BKN,0.00,WeatherDisplay:10.37,2013-04-18 14:28:00,
2013-04-18 10:33:00,66.6,42.8,30.12,SSE,158,3.3,5.8,42,0.00,,BKN,0.00,WeatherDisplay:10.37,2013-04-18 14:33:00,
2013-04-18 10:38:00,66.7,42.2,30.12,South,180,2.9,5.8,41,0.00,,BKN,0.00,WeatherDisplay:10.37,2013-04-18 14:38:00,
2013-04-18 10:43:00,66.4,42.6,30.12,SSE,158,4.9,5.8,42,0.00,,BKN,0.00,WeatherDisplay:10.37,2013-04-18 14:43:00,
2013-04-18 10:48:00,65.7,43.2,30.11,SSW,202,3.7,3.7,44,0.00,,BKN,0.00,WeatherDisplay:10.37,2013-04-18 14:48:00,
2013-04-18 10:53:00,65.7,43.2,30.11,SSW,202,3.7,3.7,44,0.00,,BKN,0.00,WeatherDisplay:10.37,2013-04-18 14:53:00,
2013-04-18 10:58:00,67.8,46.8,30.11,ENE,68,3.5,4.6,47,0.00,,BKN,0.00,WeatherDisplay:10.37,2013-04-18 14:58:00,
2013-04-18 11:03:00,67.5,43.6,30.10,West,270,3.5,4.6,42,0.00,,BKN,0.00,WeatherDisplay:10.37,2013-04-18 15:03:00,
2013-04-18 11:08:00,67.6,44.9,30.10,ESE,112,3.8,6.9,44,0.00,,BKN,0.00,WeatherDisplay:10.37,2013-04-18 15:08:00,
2013-04-18 11:13:00,66.9,44.9,30.09,West,270,2.9,4.7,45,0.00,,BKN,0.00,WeatherDisplay:10.37,2013-04-18 15:13:00,
2013-04-18 11:18:00,68.0,45.3,30.09,SSE,158,4.1,5.8,44,0.00,,BKN,0.00,WeatherDisplay:10.37,2013-04-18 15:18:00,
2013-04-18 11:24:00,67.8,45.7,30.08,SSW,202,2.7,4.6,45,0.00,,BKN,0.00,WeatherDisplay:10.37,2013-04-18 15:24:00,
2013-04-18 11:29:00,69.1,45.7,30.08,South,180,2.4,4.6,43,0.00,,BKN,0.00,WeatherDisplay:10.37,2013-04-18 15:29:00,
2013-04-18 11:34:00,70.9,48.5,30.08,SSE,158,2.2,3.5,45,0.00,,BKN,0.00,WeatherDisplay:10.37,2013-04-18 15:34:00,
2013-04-18 11:39:00,70.0,46.5,30.08,SSE,158,3.9,5.8,43,0.00,,BKN,0.00,WeatherDisplay:10.37,2013-04-18 15:39:00,
2013-04-18 11:44:00,70.5,46.3,30.08,West,270,2.8,4.6,42,0.00,,BKN,0.00,WeatherDisplay:10.37,2013-04-18 15:44:00,
2013-04-18 11:49:00,70.3,46.1,30.07,ESE,112,7.3,7.8,42,0.00,,BKN,0.00,WeatherDisplay:10.37,2013-04-18 15:49:00,
2013-04-18 11:54:00,70.3,46.7,30.07,SSE,158,4.8,8.1,43,0.00,,BKN,0.00,WeatherDisplay:10.37,2013-04-18 15:54:00,
2013-04-18 11:59:00,69.4,47.1,30.06,South,180,4.2,5.8,45,0.00,,BKN,0.00,WeatherDisplay:10.37,2013-04-18 15:59:00,
2013-04-18 12:04:00,70.7,47.1,30.06,SSE,158,2.1,3.5,43,0.00,,BKN,0.00,WeatherDisplay:10.37,2013-04-18 16:04:00,
2013-04-18 12:09:00,70.0,45.8,30.06,SW,225,4.1,6.9,42,0.00,,BKN,0.00,WeatherDisplay:10.37,2013-04-18 16:09:00,
2013-04-18 12:14:00,71.1,47.5,30.05,ESE,112,2.4,6.9,43,0.00,,BKN,0.00,WeatherDisplay:10.37,2013-04-18 16:14:00,
2013-04-18 12:19:00,70.7,46.5,30.05,ESE,112,4.3,6.3,42,0.00,,BKN,0.00,WeatherDisplay:10.37,2013-04-18 16:19:00,
2013-04-18 12:24:00,70.9,46.7,30.04,ESE,112,3.7,4.2,42,0.00,,BKN,0.00,WeatherDisplay:10.37,2013-04-18 16:24:00,
2013-04-18 12:29:00,71.4,47.1,30.04,SE,135,4.5,4.6,42,0.00,,BKN,0.00,WeatherDisplay:10.37,2013-04-18 16:29:00,
2013-04-18 12:34:00,71.4,47.7,30.04,SSW,202,4.1,4.1,43,0.00,,BKN,0.00,WeatherDisplay:10.37,2013-04-18 16:34:00,
2013-04-18 12:39:00,72.5,48.7,30.04,South,180,3.5,3.5,43,0.00,,BKN,0.00,WeatherDisplay:10.37,2013-04-18 16:39:00,
2013-04-18 12:44:00,72.5,48.1,30.04,SSW,202,3.5,5.8,42,0.00,,BKN,0.00,WeatherDisplay:10.37,2013-04-18 16:44:00,
2013-04-18 12:49:00,73.0,48.5,30.03,WSW,248,4.5,4.7,42,0.00,,BKN,0.00,WeatherDisplay:10.37,2013-04-18 16:49:00,
2013-04-18 12:54:00,72.1,48.4,30.03,SE,135,5.8,8.1,43,0.00,,BKN,0.00,WeatherDisplay:10.37,2013-04-18 16:54:00,
2013-04-18 12:59:00,71.4,48.3,30.03,SSE,158,3.4,5.8,44,0.00,,BKN,0.00,WeatherDisplay:10.37,2013-04-18 16:59:00,
2013-04-18 13:04:00,70.9,48.5,30.03,West,270,6.3,8.1,45,0.00,,BKN,0.00,WeatherDisplay:10.37,2013-04-18 17:04:00,
2013-04-18 13:09:00,71.6,48.5,30.03,South,180,3.1,4.6,44,0.00,,BKN,0.00,WeatherDisplay:10.37,2013-04-18 17:09:00,
2013-04-18 13:14:00,71.6,49.1,30.02,South,180,4.7,8.1,45,0.00,,BKN,0.00,WeatherDisplay:10.37,2013-04-18 17:14:00,
2013-04-18 13:19:00,73.2,49.4,30.02,ESE,112,4.2,7.3,43,0.00,,BKN,0.00,WeatherDisplay:10.37,2013-04-18 17:19:00,
2013-04-18 13:24:00,72.5,47.5,30.02,SSE,158,5.1,5.8,41,0.00,,BKN,0.00,WeatherDisplay:10.37,2013-04-18 17:24:00,
2013-04-18 13:29:00,72.1,49.0,30.02,SE,135,3.3,4.6,44,0.00,,BKN,0.00,WeatherDisplay:10.37,2013-04-18 17:29:00,
2013-04-18 13:34:00,73.8,48.6,30.02,SSE,158,3.4,4.6,41,0.00,,BKN,0.00,WeatherDisplay:10.37,2013-04-18 17:34:00,
2013-04-18 13:39:00,73.6,49.7,30.01,WSW,248,4.2,4.6,43,0.00,,BKN,0.00,WeatherDisplay:10.37,2013-04-18 17:39:00,
2013-04-18 13:44:00,72.5,49.3,30.01,SSW,202,2.9,4.6,44,0.00,,BKN,0.00,WeatherDisplay:10.37,2013-04-18 17:44:00,
2013-04-18 13:49:00,73.4,50.2,30.02,SE,135,4.7,5.8,44,0.00,,BKN,0.00,WeatherDisplay:10.37,2013-04-18 17:49:00,
2013-04-18 13:54:00,73.6,50.3,30.02,NNW,338,3.6,5.8,44,0.00,,BKN,0.00,WeatherDisplay:10.37,2013-04-18 17:54:00,
2013-04-18 13:59:00,73.6,50.3,30.02,SSW,202,4.1,4.6,44,0.00,,BKN,0.00,WeatherDisplay:10.37,2013-04-18 17:59:00,
2013-04-18 14:04:00,73.8,50.5,30.01,South,180,2.8,3.7,44,0.00,,BKN,0.00,WeatherDisplay:10.37,2013-04-18 18:04:00,
2013-04-18 14:09:00,73.6,50.9,30.01,South,180,4.2,5.8,45,0.00,,BKN,0.00,WeatherDisplay:10.37,2013-04-18 18:09:00,
2013-04-18 14:14:00,74.1,51.4,30.02,SSW,202,4.5,5.8,45,0.00,,BKN,0.00,WeatherDisplay:10.37,2013-04-18 18:14:00,
2013-04-18 14:19:00,73.4,50.8,30.02,SSE,158,4.2,5.8,45,0.00,,BKN,0.00,WeatherDisplay:10.37,2013-04-18 18:19:00,
2013-04-18 14:24:00,74.3,52.2,30.01,SW,225,5.0,7.3,46,0.00,,BKN,0.00,WeatherDisplay:10.37,2013-04-18 18:24:00,
2013-04-18 14:29:00,73.6,51.5,30.01,SSE,158,5.3,6.9,46,0.00,,BKN,0.00,WeatherDisplay:10.37,2013-04-18 18:29:00,
2013-04-18 14:34:00,72.9,50.9,30.01,SE,135,4.4,5.8,46,0.00,,BKN,0.00,WeatherDisplay:10.37,2013-04-18 18:34:00,
2013-04-18 14:39:00,72.7,50.7,30.00,South,180,5.3,5.8,46,0.00,,BKN,0.00,WeatherDisplay:10.37,2013-04-18 18:39:00,
2013-04-18 14:44:00,71.8,51.0,30.00,SW,225,4.1,4.6,48,0.00,,BKN,0.00,WeatherDisplay:10.37,2013-04-18 18:44:00,
2013-04-18 14:49:00,72.1,51.3,29.99,South,180,4.5,5.8,48,0.00,,BKN,0.00,WeatherDisplay:10.37,2013-04-18 18:49:00,
2013-04-18 14:54:00,71.6,50.3,29.99,SE,135,6.6,8.1,47,0.00,,BKN,0.00,WeatherDisplay:10.37,2013-04-18 18:54:00,
2013-04-18 14:59:00,73.2,51.2,29.98,WSW,248,3.7,4.6,46,0.00,,BKN,0.00,WeatherDisplay:10.37,2013-04-18 18:59:00,
2013-04-18 15:04:00,73.0,51.0,29.98,SSE,158,4.9,5.8,46,0.00,,BKN,0.00,WeatherDisplay:10.37,2013-04-18 19:04:00,
2013-04-18 15:09:00,73.0,51.0,29.98,SSE,158,6.1,8.1,46,0.00,,BKN,0.00,WeatherDisplay:10.37,2013-04-18 19:09:00,
2013-04-18 15:14:00,72.9,51.5,29.95,South,180,4.3,5.8,47,0.00,,BKN,0.00,WeatherDisplay:10.37,2013-04-18 19:14:00,
2013-04-18 15:19:00,72.9,51.5,29.95,SSW,202,2.7,2.7,47,0.00,,BKN,0.00,WeatherDisplay:10.37,2013-04-18 19:19:00,
2013-04-18 15:24:00,73.4,52.5,29.95,SSE,158,4.1,5.8,48,0.00,,BKN,0.00,WeatherDisplay:10.37,2013-04-18 19:24:00,
2013-04-18 15:29:00,73.6,52.1,29.95,ESE,112,4.6,5.8,47,0.00,,BKN,0.00,WeatherDisplay:10.37,2013-04-18 19:29:00,
2013-04-18 15:34:00,73.6,52.1,29.95,SSE,158,7.0,9.2,47,0.00,,BKN,0.00,WeatherDisplay:10.37,2013-04-18 19:34:00,
2013-04-18 15:39:00,73.0,52.7,29.94,SSE,158,5.9,5.9,49,0.00,,BKN,0.00,WeatherDisplay:10.37,2013-04-18 19:39:00,
2013-04-18 15:44:00,72.5,52.8,29.94,ESE,112,5.5,8.1,50,0.00,,BKN,0.00,WeatherDisplay:10.37,2013-04-18 19:44:00,
2013-04-18 15:49:00,73.0,53.8,29.93,South,180,4.4,5.8,51,0.00,,BKN,0.00,WeatherDisplay:10.37,2013-04-18 19:49:00,
2013-04-18 15:54:00,73.4,54.2,29.93,ESE,112,3.8,4.6,51,0.00,,BKN,0.00,WeatherDisplay:10.37,2013-04-18 19:54:00,
2013-04-18 15:59:00,73.6,52.7,29.93,WSW,248,5.8,11.5,48,0.00,,BKN,0.00,WeatherDisplay:10.37,2013-04-18 19:59:00,
2013-04-18 16:04:00,73.6,52.7,29.93,SSE,158,4.9,5.8,48,0.00,,BKN,0.00,WeatherDisplay:10.37,2013-04-18 20:04:00,
2013-04-18 16:09:00,74.3,53.9,29.93,SSE,158,5.0,5.8,49,0.00,,BKN,0.00,WeatherDisplay:10.37,2013-04-18 20:09:00,
2013-04-18 16:14:00,74.3,53.9,29.93,WSW,248,6.3,10.4,49,0.00,,BKN,0.00,WeatherDisplay:10.37,2013-04-18 20:14:00,
2013-04-18 16:19:00,75.0,53.4,29.93,SSE,158,5.4,11.5,47,0.00,,BKN,0.00,WeatherDisplay:10.37,2013-04-18 20:19:00,
2013-04-18 16:24:00,75.7,53.4,29.94,North,360,7.1,8.3,46,0.00,,BKN,0.00,WeatherDisplay:10.37,2013-04-18 20:24:00,
2013-04-18 16:29:00,71.8,53.7,29.94,SW,225,5.0,5.8,53,0.00,,BKN,0.00,WeatherDisplay:10.37,2013-04-18 20:29:00,
2013-04-18 16:34:00,71.1,53.6,29.94,ESE,112,3.3,9.4,54,0.00,,BKN,0.00,WeatherDisplay:10.37,2013-04-18 20:34:00,
2013-04-18 16:39:00,70.9,53.9,29.95,ESE,112,3.0,4.7,55,0.00,,BKN,0.00,WeatherDisplay:10.37,2013-04-18 20:39:00,
2013-04-18 16:44:00,70.3,53.9,29.95,West,270,4.2,6.8,56,0.00,,BKN,0.00,WeatherDisplay:10.37,2013-04-18 20:44:00,
2013-04-18 16:49:00,70.9,54.4,29.94,North,360,2.8,5.8,56,0.00,,BKN,0.00,WeatherDisplay:10.37,2013-04-18 20:49:00,
2013-04-18 16:54:00,70.2,53.8,29.94,SE,135,7.4,10.4,56,0.00,,BKN,0.00,WeatherDisplay:10.37,2013-04-18 20:54:00,
2013-04-18 16:59:00,70.3,54.3,29.93,ESE,112,5.3,5.8,57,0.00,,BKN,0.00,WeatherDisplay:10.37,2013-04-18 20:59:00,
2013-04-18 17:04:00,71.4,53.9,29.93,SE,135,4.6,6.8,54,0.00,,BKN,0.00,WeatherDisplay:10.37,2013-04-18 21:04:00,
2013-04-18 17:09:00,71.2,54.2,29.93,SE,135,3.6,4.6,55,0.00,,BKN,0.00,WeatherDisplay:10.37,2013-04-18 21:09:00,
2013-04-18 17:14:00,71.8,53.7,29.92,SE,135,4.6,6.9,53,0.00,,BKN,0.00,WeatherDisplay:10.37,2013-04-18 21:14:00,
2013-04-18 17:19:00,71.1,54.1,29.92,ESE,112,2.8,5.8,55,0.00,,BKN,0.00,WeatherDisplay:10.37,2013-04-18 21:19:00,
2013-04-18 17:24:00,71.4,54.4,29.92,WSW,248,4.0,5.8,55,0.00,,BKN,0.00,WeatherDisplay:10.37,2013-04-18 21:24:00,
2013-04-18 17:29:00,71.4,54.4,29.92,SSW,202,2.0,2.3,55,0.00,,BKN,0.00,WeatherDisplay:10.37,2013-04-18 21:29:00,
2013-04-18 17:34:00,71.4,54.9,29.92,SSW,202,4.4,5.8,56,0.00,,BKN,0.00,WeatherDisplay:10.37,2013-04-18 21:34:00,
2013-04-18 17:39:00,71.1,54.6,29.92,West,270,5.7,8.1,56,0.00,,BKN,0.00,WeatherDisplay:10.37,2013-04-18 21:39:00,
2013-04-18 17:44:00,71.8,55.3,29.92,NNE,22,2.7,5.8,56,0.00,,BKN,0.00,WeatherDisplay:10.37,2013-04-18 21:44:00,
2013-04-18 17:49:00,70.9,54.4,29.93,West,270,5.5,6.9,56,0.00,,BKN,0.00,WeatherDisplay:10.37,2013-04-18 21:49:00,
2013-04-18 17:54:00,70.9,54.9,29.93,NNE,22,4.7,8.1,57,0.00,,BKN,0.00,WeatherDisplay:10.37,2013-04-18 21:54:00,
2013-04-18 17:59:00,70.5,54.5,29.92,West,270,8.3,8.3,57,0.00,,BKN,0.00,WeatherDisplay:10.37,2013-04-18 21:59:00,
2013-04-18 18:04:00,69.4,54.4,29.92,SSW,202,6.0,8.1,59,0.00,,BKN,0.00,WeatherDisplay:10.37,2013-04-18 22:04:00,
2013-04-18 18:09:00,68.5,54.1,29.92,ESE,112,3.3,5.8,60,0.00,,BKN,0.00,WeatherDisplay:10.37,2013-04-18 22:09:00,
2013-04-18 18:14:00,68.0,54.5,29.91,ESE,112,2.8,6.9,62,0.00,,BKN,0.00,WeatherDisplay:10.37,2013-04-18 22:14:00,
2013-04-18 18:19:00,67.8,54.3,29.91,ESE,112,4.0,5.8,62,0.00,,BKN,0.00,WeatherDisplay:10.37,2013-04-18 22:19:00,
2013-04-18 18:24:00,67.3,54.3,29.90,SSW,202,4.1,6.8,63,0.00,,BKN,0.00,WeatherDisplay:10.37,2013-04-18 22:24:00,
2013-04-18 18:29:00,67.6,54.1,29.90,NW,315,5.0,6.8,62,0.00,,BKN,0.00,WeatherDisplay:10.37,2013-04-18 22:29:00,
2013-04-18 18:34:00,66.9,53.9,29.90,SSW,202,5.2,6.8,63,0.00,,BKN,0.00,WeatherDisplay:10.37,2013-04-18 22:34:00,
2013-04-18 18:39:00,67.1,54.9,29.89,West,270,3.5,5.8,65,0.00,,BKN,0.00,WeatherDisplay:10.37,2013-04-18 22:39:00,
2013-04-18 18:44:00,66.0,54.3,29.89,SSW,202,3.0,9.2,66,0.00,,BKN,0.00,WeatherDisplay:10.37,2013-04-18 22:44:00,
2013-04-18 18:49:00,66.0,54.7,29.89,WSW,248,4.4,5.8,67,0.00,,BKN,0.00,WeatherDisplay:10.37,2013-04-18 22:49:00,
2013-04-18 18:54:00,65.5,54.2,29.89,SSE,158,3.9,5.8,67,0.00,,BKN,0.00,WeatherDisplay:10.37,2013-04-18 22:54:00,
2013-04-18 18:59:00,64.9,54.5,29.88,SSW,202,3.2,5.8,69,0.00,,BKN,0.00,WeatherDisplay:10.37,2013-04-18 22:59:00,
2013-04-18 19:04:00,64.6,54.6,29.88,SE,135,4.6,4.7,70,0.00,,BKN,0.00,WeatherDisplay:10.37,2013-04-18 23:04:00,
2013-04-18 19:09:00,64.4,54.4,29.88,SSW,202,2.6,4.6,70,0.00,,BKN,0.00,WeatherDisplay:10.37,2013-04-18 23:09:00,
2013-04-18 19:15:00,64.0,54.0,29.88,SE,135,5.3,8.8,70,0.00,,BKN,0.00,WeatherDisplay:10.37,2013-04-18 23:15:00,
2013-04-18 19:20:00,63.9,54.3,29.88,NE,45,4.0,4.6,71,0.00,,BKN,0.00,WeatherDisplay:10.37,2013-04-18 23:20:00,
2013-04-18 19:25:00,63.9,54.3,29.88,SW,225,2.3,4.6,71,0.00,,BKN,0.00,WeatherDisplay:10.37,2013-04-18 23:25:00,
2013-04-18 19:30:00,63.5,54.3,29.88,SE,135,4.6,8.1,72,0.00,,BKN,0.00,WeatherDisplay:10.37,2013-04-18 23:30:00,
2013-04-18 19:35:00,63.5,54.3,29.88,SSW,202,3.0,5.8,72,0.00,,BKN,0.00,WeatherDisplay:10.37,2013-04-18 23:35:00,
2013-04-18 19:40:00,63.1,54.3,29.89,SW,225,5.4,6.9,73,0.00,,BKN,0.00,WeatherDisplay:10.37,2013-04-18 23:40:00,
2013-04-18 19:45:00,63.1,54.3,29.89,ESE,112,2.1,4.6,73,0.00,,BKN,0.00,WeatherDisplay:10.37,2013-04-18 23:45:00,
2013-04-18 19:50:00,63.0,54.2,29.89,ESE,112,5.0,5.8,73,0.00,,BKN,0.00,WeatherDisplay:10.37,2013-04-18 23:50:00,
2013-04-18 19:55:00,62.8,54.0,29.89,West,270,4.7,5.8,73,0.00,,BKN,0.00,WeatherDisplay:10.37,2013-04-18 23:55:00,
2013-04-18 20:00:00,62.8,54.4,29.89,ESE,112,5.3,6.9,74,0.00,,BKN,0.00,WeatherDisplay:10.37,2013-04-19 00:00:00,
2013-04-18 20:05:00,62.6,54.2,29.89,South,180,6.4,10.4,74,0.00,,BKN,0.00,WeatherDisplay:10.37,2013-04-19 00:05:00,
2013-04-18 20:10:00,62.4,54.4,29.89,West,270,4.7,6.3,75,0.00,,BKN,0.00,WeatherDisplay:10.37,2013-04-19 00:10:00,
2013-04-18 20:15:00,62.4,54.4,29.89,South,180,3.4,5.8,75,0.00,,BKN,0.00,WeatherDisplay:10.37,2013-04-19 00:15:00,
2013-04-18 20:20:00,62.2,54.5,29.89,South,180,2.1,4.6,76,0.00,,BKN,0.00,WeatherDisplay:10.37,2013-04-19 00:20:00,
2013-04-18 20:25:00,62.4,54.7,29.89,ESE,112,2.0,3.5,76,0.00,,BKN,0.00,WeatherDisplay:10.37,2013-04-19 00:25:00,
2013-04-18 20:30:00,62.4,54.7,29.89,South,180,4.6,5.8,76,0.00,,BKN,0.00,WeatherDisplay:10.37,2013-04-19 00:30:00,
2013-04-18 20:35:00,62.6,54.6,29.89,South,180,5.7,6.9,75,0.00,,BKN,0.00,WeatherDisplay:10.37,2013-04-19 00:35:00,
2013-04-18 20:40:00,62.6,54.6,29.89,SW,225,4.9,8.3,75,0.00,,BKN,0.00,WeatherDisplay:10.37,2013-04-19 00:40:00,
2013-04-18 20:45:00,62.6,54.6,29.89,South,180,4.4,5.8,75,0.00,,BKN,0.00,WeatherDisplay:10.37,2013-04-19 00:45:00,
2013-04-18 20:50:00,62.4,54.4,29.88,NNW,338,3.9,4.6,75,0.00,,BKN,0.00,WeatherDisplay:10.37,2013-04-19 00:50:00,
2013-04-18 20:55:00,62.4,54.7,29.88,WSW,248,3.9,5.8,76,0.00,,BKN,0.00,WeatherDisplay:10.37,2013-04-19 00:55:00,
2013-04-18 21:00:00,62.4,54.7,29.88,SSE,158,4.4,4.6,76,0.00,,BKN,0.00,WeatherDisplay:10.37,2013-04-19 01:00:00,
2013-04-18 21:05:00,62.2,54.5,29.88,SSE,158,4.4,5.8,76,0.00,,BKN,0.00,WeatherDisplay:10.37,2013-04-19 01:05:00,
2013-04-18 21:10:00,62.2,54.5,29.88,West,270,5.4,6.9,76,0.00,,BKN,0.00,WeatherDisplay:10.37,2013-04-19 01:10:00,
2013-04-18 21:15:00,62.2,54.5,29.88,WSW,248,3.8,5.8,76,0.00,,BKN,0.00,WeatherDisplay:10.37,2013-04-19 01:15:00,
2013-04-18 21:20:00,62.1,54.8,29.88,SSE,158,3.9,5.8,77,0.00,,BKN,0.00,WeatherDisplay:10.37,2013-04-19 01:20:00,
2013-04-18 21:25:00,62.1,54.8,29.87,South,180,5.4,5.8,77,0.00,,BKN,0.00,WeatherDisplay:10.37,2013-04-19 01:25:00,
2013-04-18 21:30:00,61.9,54.6,29.87,WNW,292,4.0,4.6,77,0.00,,BKN,0.00,WeatherDisplay:10.37,2013-04-19 01:30:00,
2013-04-18 21:35:00,61.9,54.6,29.87,SSE,158,3.3,5.8,77,0.00,,BKN,0.00,WeatherDisplay:10.37,2013-04-19 01:35:00,
2013-04-18 21:40:00,61.5,54.2,29.88,SSE,158,2.9,4.6,77,0.00,,BKN,0.00,WeatherDisplay:10.37,2013-04-19 01:40:00,
2013-04-18 21:45:00,61.5,54.2,29.88,South,180,3.2,4.6,77,0.00,,BKN,0.00,WeatherDisplay:10.37,2013-04-19 01:45:00,
2013-04-18 21:50:00,61.5,54.2,29.86,South,180,5.5,9.2,77,0.00,,BKN,0.00,WeatherDisplay:10.37,2013-04-19 01:50:00,
2013-04-18 21:55:00,61.3,54.4,29.86,SE,135,3.9,4.6,78,0.00,,BKN,0.00,WeatherDisplay:10.37,2013-04-19 01:55:00,
2013-04-18 22:00:00,61.3,54.4,29.86,WSW,248,4.5,5.8,78,0.00,,BKN,0.00,WeatherDisplay:10.37,2013-04-19 02:00:00,
2013-04-18 22:05:00,61.2,54.3,29.86,West,270,4.5,6.8,78,0.00,,BKN,0.00,WeatherDisplay:10.37,2013-04-19 02:05:00,
2013-04-18 22:10:00,61.2,54.3,29.86,SE,135,3.1,3.5,78,0.00,,BKN,0.00,WeatherDisplay:10.37,2013-04-19 02:10:00,
2013-04-18 22:15:00,61.2,54.3,29.85,SSE,158,4.3,5.8,78,0.00,,BKN,0.00,WeatherDisplay:10.37,2013-04-19 02:15:00,
2013-04-18 22:20:00,61.0,54.1,29.85,South,180,4.2,5.8,78,0.00,,BKN,0.00,WeatherDisplay:10.37,2013-04-19 02:20:00,
2013-04-18 22:25:00,61.2,54.3,29.85,South,180,3.3,4.7,78,0.00,,BKN,0.00,WeatherDisplay:10.37,2013-04-19 02:25:00,
2013-04-18 22:30:00,61.2,54.3,29.85,South,180,4.6,6.9,78,0.00,,BKN,0.00,WeatherDisplay:10.37,2013-04-19 02:30:00,
2013-04-18 22:35:00,61.2,54.3,29.86,South,180,5.4,9.2,78,0.00,,BKN,0.00,WeatherDisplay:10.37,2013-04-19 02:35:00,
2013-04-18 22:40:00,60.8,53.9,29.86,SW,225,6.1,6.9,78,0.00,,BKN,0.00,WeatherDisplay:10.37,2013-04-19 02:40:00,
2013-04-18 22:45:00,60.8,53.9,29.86,ESE,112,5.2,6.3,78,0.00,,BKN,0.00,WeatherDisplay:10.37,2013-04-19 02:45:00,
2013-04-18 22:50:00,61.0,54.1,29.85,SSW,202,3.4,5.8,78,0.00,,BKN,0.00,WeatherDisplay:10.37,2013-04-19 02:50:00,
2013-04-18 22:55:00,61.0,54.1,29.85,WSW,248,3.5,4.6,78,0.00,,BKN,0.00,WeatherDisplay:10.37,2013-04-19 02:55:00,
2013-04-18 23:00:00,61.2,54.3,29.86,ESE,112,6.2,9.2,78,0.00,,BKN,0.00,WeatherDisplay:10.37,2013-04-19 03:00:00,
2013-04-18 23:05:00,61.0,54.1,29.86,SE,135,5.0,5.8,78,0.00,,BKN,0.00,WeatherDisplay:10.37,2013-04-19 03:05:00,
2013-04-18 23:10:00,61.0,54.4,29.86,SSE,158,5.6,6.9,79,0.00,,BKN,0.00,WeatherDisplay:10.37,2013-04-19 03:10:00,
2013-04-18 23:15:00,60.8,54.2,29.86,SSE,158,2.5,3.5,79,0.00,,BKN,0.00,WeatherDisplay:10.37,2013-04-19 03:15:00,
2013-04-18 23:20:00,61.0,54.4,29.86,ESE,112,5.3,5.8,79,0.00,,BKN,0.00,WeatherDisplay:10.37,2013-04-19 03:20:00,
2013-04-18 23:25:00,61.0,54.4,29.85,East,90,5.2,5.8,79,0.00,,BKN,0.00,WeatherDisplay:10.37,2013-04-19 03:25:00,
2013-04-18 23:30:00,61.0,54.4,29.85,ESE,112,3.9,5.8,79,0.00,,BKN,0.00,WeatherDisplay:10.37,2013-04-19 03:30:00,
2013-04-18 23:35:00,61.0,54.4,29.85,SSE,158,4.2,5.8,79,0.00,,BKN,0.00,WeatherDisplay:10.37,2013-04-19 03:35:00,
2013-04-18 23:40:00,61.0,54.4,29.85,SE,135,6.7,10.4,79,0.00,,BKN,0.00,WeatherDisplay:10.37,2013-04-19 03:40:00,
2013-04-18 23:45:00,60.8,53.9,29.85,South,180,3.6,5.8,78,0.00,,BKN,0.00,WeatherDisplay:10.37,2013-04-19 03:45:00,
2013-04-18 23:50:00,61.0,54.1,29.84,ESE,112,3.5,4.6,78,0.00,,BKN,0.00,WeatherDisplay:10.37,2013-04-19 03:50:00,
2013-04-18 23:55:00,61.0,54.1,29.84,South,180,4.6,5.8,78,0.00,,BKN,0.00,WeatherDisplay:10.37,2013-04-19 03:55:00,